Change the Weather History Date:

Wednesday, September 19, 2012

  Actual Average Record
Temperature  
Mean Temperature 70 °F 74 °F  
Max Temperature 77 °F 83 °F 95 °F (1970)
Min Temperature 63 °F 65 °F 50 °F (1889)
Degree Days  
Heating Degree Days 0 0  
Month to date heating degree days 0 0  
Since 1 July heating degree days 0 0  
Cooling Degree Days 5 9  
Month to date cooling degree days 226 214  
Year to date cooling degree days 2012 1837  
Growing Degree Days 20 (Base 50)    
Moisture  
Dew Point 66 °F    
Average Humidity 87    
Maximum Humidity 100    
Minimum Humidity 73    
Precipitation  
Precipitation 0.05 in 0.25 in 6.57 in (1955)
Month to date precipitation 4.37 5.16  
Year to date precipitation 36.41 44.13  
Sea Level Pressure  
Sea Level Pressure 29.97 in    
Wind  
Wind Speed 8 mph (North)    
Max Wind Speed 16 mph    
Max Gust Speed 20 mph    
Visibility 10 miles    
Events Rain    
T = Trace of Precipitation, MM = Missing Value Source: NWS Daily Summary

Daily Weather History Graph

Daily Weather History Graph

Search for Another Location

Airport or City:

Trip Planner

Search our weather history database for the weather conditions in past years. The results will help you decide how hot, cold, wet, or windy it might be!

Date:

Astronomy

Sep. 19, 2012 Rise Set
Actual Time 6:57 AM EDT 7:11 PM EDT
Civil Twilight 6:32 AM EDT 7:36 PM EDT
Nautical Twilight 6:03 AM EDT 8:06 PM EDT
Astronomical Twilight 5:33 AM EDT 8:35 PM EDT
Moon 10:52 AM EDT (9/19) 9:33 PM EDT (9/19)
Length of Visible Light 13h 04m
Length of Day
12h 14m
Waxing Crescent, 17% of the Moon is Illuminated
Sep 19
Waxing Crescent
Sep 22
First Quarter
Sep 29
Full
Oct 8
Last Quarter
Oct 15
New

Hourly Weather History & Observations

Time (EDT) Temp. Dew Point Humidity Pressure Visibility Wind Dir Wind Speed Gust Speed Precip Events Conditions
12:53 AM 73.9 °F 72.0 °F 93% 29.86 in 10.0 mi WSW 4.6 mph - N/A   Partly Cloudy
1:27 AM 73.4 °F 71.6 °F 94% 29.87 in 10.0 mi WSW 5.8 mph - N/A   Mostly Cloudy
1:53 AM 73.9 °F 71.1 °F 91% 29.87 in 5.0 mi WSW 11.5 mph - 0.01 in Rain Rain
2:53 AM 73.0 °F 71.1 °F 93% 29.86 in 10.0 mi WSW 5.8 mph - 0.04 in   Overcast
3:53 AM 72.0 °F 71.1 °F 97% 29.85 in 10.0 mi WSW 4.6 mph - N/A   Partly Cloudy
4:53 AM 72.0 °F 70.0 °F 93% 29.87 in 10.0 mi West 4.6 mph - N/A   Partly Cloudy
5:53 AM 72.0 °F 69.1 °F 91% 29.88 in 10.0 mi Calm Calm - N/A   Mostly Cloudy
6:53 AM 71.6 °F 69.8 °F 94% 29.90 in 10.0 mi WNW 3.5 mph - N/A   Scattered Clouds
7:03 AM 71.6 °F 69.8 °F 94% 29.90 in 10.0 mi Calm Calm - N/A   Mostly Cloudy
7:53 AM 73.0 °F 70.0 °F 90% 29.92 in 10.0 mi NW 4.6 mph - N/A   Overcast
8:20 AM 73.4 °F 69.8 °F 88% 29.93 in 10.0 mi North 6.9 mph - N/A   Overcast
8:41 AM 73.4 °F 69.8 °F 88% 29.94 in 10.0 mi North 8.1 mph - N/A   Overcast
8:53 AM 73.0 °F 69.1 °F 87% 29.94 in 10.0 mi NNE 6.9 mph - N/A   Overcast
9:12 AM 73.4 °F 68.0 °F 83% 29.95 in 10.0 mi North 12.7 mph - N/A   Overcast
9:53 AM 75.9 °F 68.0 °F 76% 29.96 in 10.0 mi North 10.4 mph - N/A   Overcast
10:29 AM 75.2 °F 68.0 °F 78% 29.97 in 10.0 mi NNE 11.5 mph - N/A   Mostly Cloudy
10:53 AM 73.9 °F 66.9 °F 79% 29.98 in 10.0 mi NNE 12.7 mph - N/A   Overcast
11:53 AM 73.9 °F 66.9 °F 79% 29.99 in 10.0 mi North 10.4 mph - N/A   Overcast
12:53 PM 71.1 °F 66.0 °F 84% 30.00 in 10.0 mi NNE 10.4 mph - N/A   Overcast
1:21 PM 71.6 °F 66.2 °F 83% 30.00 in 10.0 mi North 9.2 mph - N/A   Overcast
1:53 PM 73.0 °F 66.0 °F 79% 30.00 in 10.0 mi North 12.7 mph - N/A   Overcast
2:02 PM 71.6 °F 64.4 °F 78% 30.00 in 10.0 mi NNE 11.5 mph - N/A   Overcast
2:53 PM 72.0 °F 63.0 °F 73% 30.01 in 10.0 mi NNE 10.4 mph - N/A   Overcast
3:53 PM 72.0 °F 63.0 °F 73% 30.02 in 10.0 mi NNE 10.4 mph - N/A   Overcast
4:53 PM 71.1 °F 62.1 °F 73% 30.02 in 10.0 mi NNE 11.5 mph - N/A   Overcast
5:53 PM 69.1 °F 60.1 °F 73% 30.04 in 10.0 mi NNE 11.5 mph - N/A   Overcast
6:42 PM 68.0 °F 60.8 °F 78% 30.05 in 10.0 mi North 9.2 mph - N/A   Overcast
6:53 PM 66.9 °F 60.1 °F 79% 30.05 in 10.0 mi North 8.1 mph - N/A   Overcast
7:53 PM 64.9 °F 60.1 °F 84% 30.06 in 10.0 mi North 6.9 mph - N/A   Scattered Clouds
8:53 PM 66.2 °F 60.8 °F 83% 30.07 in 10.0 mi NNE 8.1 mph - N/A   Mostly Cloudy
9:53 PM 64.0 °F 60.1 °F 87% 30.08 in 10.0 mi NNE 6.9 mph - N/A   Clear
10:53 PM 64.0 °F 59.0 °F 84% 30.09 in 10.0 mi North 5.8 mph - N/A   Clear
11:53 PM 63.0 °F 60.1 °F 90% 30.09 in 10.0 mi North 5.8 mph - N/A   Clear